Overview Statistics Trail Chart Weather Telemetry Raw packets
 

This is the latest recevied weather packets stored in our database for station/object KD4PMP. If no packets are shown the sender has not sent any weather packets the latest 10 day(s).

<< 8 9 10 11 12 13 14 >>
Time Temp. Humidity Pressure Rain* Wind** Luminosity Snow
1788486833 30.56° C 68% 1013.6 hPa 0 mm - - -
1788486227 31.11° C 68% 1013.4 hPa 0 mm - - -
1788485621 31.11° C 67% 1013.3 hPa 0 mm - - -
1788485014 31.67° C 66% 1013.2 hPa 0 mm - - -
1788484408 31.67° C 65% 1013.2 hPa 0 mm - - -
1788483801 32.22° C 64% 1012.9 hPa 0 mm - - -
1788483195 32.22° C 63% 1012.9 hPa 0 mm - - -
1788482589 32.78° C 61% 1012.8 hPa 0 mm - - -
1788481982 33.33° C 60% 1012.7 hPa 0 mm - - -
1788481376 33.89° C 57% 1012.7 hPa 0 mm - - -
1788480770 34.44° C 56% 1012.6 hPa 0 mm - - -
1788480164 35° C 56% 1012.7 hPa 0 mm - - -
1788479557 35° C 55% 1012.7 hPa 0 mm - - -
1788478951 35.56° C 53% 1012.5 hPa 0 mm - - -
1788478344 36.67° C 51% 1012.5 hPa 0 mm - - -
1788477738 37.22° C 49% 1012.4 hPa 0 mm - - -
1788477131 37.22° C 49% 1012.3 hPa 0 mm - - -
1788476525 37.22° C 50% 1012.2 hPa 0 mm - - -
1788475919 37.22° C 50% 1012 hPa 0 mm - - -
1788475313 37.22° C 50% 1012 hPa 0 mm - - -
1788474706 36.67° C 51% 1012.1 hPa 0 mm - - -
1788474100 36.67° C 51% 1012.1 hPa 0 mm - - -
1788473493 36.67° C 51% 1012.2 hPa 0 mm - - -
1788472887 36.67° C 50% 1012.1 hPa 0 mm - - -
1788472281 36.67° C 51% 1012.1 hPa 0 mm - - -

* Rain latest hour (hover to see other rain measurements)
** Current wind speed in m/s (hover to see current wind gust speed)